BEIJING 1 1 28890U 05043A 26238.29579124 .00000230 00000+0 53754-4 0 9991 2 28890 98.3002 11.9349 0015799 64.6563 295.6273 14.63568203110902 HUANJING 1A (HJ-1A) 1 33320U 08041A 26238.28727657 .00000656 00000+0 84620-4 0 9999 2 33320 97.6748 221.4449 0017295 269.2388 90.6845 14.84128610968800 HUANJING 1B (HJ-1B) 1 33321U 08041B 26238.28872829 .00000621 00000+0 81163-4 0 9993 2 33321 97.6582 224.4029 0035259 315.6004 44.2384 14.83434277968806 YAOGAN-4 1 33446U 08061A 26238.25817330 .00000833 00000+0 10818-3 0 9999 2 33446 97.9310 171.2578 0013647 196.7855 163.2909 14.83314690956058 DEIMOS-1 1 35681U 09041A 26238.31794981 .00000219 00000+0 39337-4 0 9990 2 35681 97.7487 32.5440 0001401 34.9066 325.2235 14.75297427917220 UK-DMC 2 1 35683U 09041C 26238.31826811 .00000056 00000+0 15268-4 0 9996 2 35683 97.8922 11.6091 0001654 74.3206 285.8186 14.76117408916913 DMC3-FM1 1 40715U 15032A 26238.24574858 .00000818 00000+0 10000-3 0 9992 2 40715 97.6366 100.6421 0005484 166.0473 194.0896 14.85803163600314 DMC3-FM2 1 40716U 15032B 26238.26747801 .00000705 00000+0 86961-4 0 9990 2 40716 97.6420 102.2838 0005782 172.4599 187.6705 14.85812192600316 DMC3-FM3 1 40717U 15032C 26238.29132769 -.00000246 00000+0 -22390-4 0 9993 2 40717 97.6468 104.1034 0004995 170.6426 189.4884 14.85796216600329